Powrót do katalogu

GORIZONT 27

AktywnyŁącznośćGEO
NORAD 22245·PAYLOAD·🇷🇺 Russia

Wystrzelony Nov 27, 1992 z Baikonur Cosmodrome

Loading…

TLE

ŚwieżeSource: Space-Track

Epoka: Sep 14, 2026, 00:00 UTC

1 22245U 92082A   26257.00068975 -.00000204  00000-0  00000-0 0  9990
2 22245  13.6626 343.3197 0011444  31.2134 316.9539  1.00211113128006

Śledź GORIZONT 27 w czasie rzeczywistym z AllMySat

Download on the App Store